Regional Weather Roundup
Issued by NWS

Home | Current Version | Previous Version | Graphics & Text | Print | Product List | Glossary On
Versions: 1 2 3 4 5 6 7 8 9 10 11 12 13 14 15 16 17 18 19 20 21 22 23 24 25 26 27 28 29 30 31 32 33 34 35 36 37 38 39 40 41 42 43 44 45 46 47 48 49 50
000
ASUS43 KFSD 210402
RWRSD

WEATHER ROUNDUP FOR SOUTH DAKOTA
NATIONAL WEATHER SERVICE SIOUX FALLS SD
1100 PM CDT THU JUL 20 2017

NOTE: "FAIR" INDICATES FEW OR NO CLOUDS BELOW 12,000 FEET WITH NO
SIGNIFICANT WEATHER AND/OR OBSTRUCTIONS TO VISIBILITY.


SDZ001>005-009-010-012>017-210500-
NORTHWEST AND NORTH CENTRAL SOUTH DAKOTA

CITY           SKY/WX    TMP DP  RH WIND       PRES   REMARKS
BUFFALO          N/A     70  63  78 SE21      29.82S
FAITH            N/A     70  64  81 NE21G30   29.92R
MOBRIDGE       TSTM      71  67  87 N20G28    29.96R FOG
$$

SDZ012>016-024>037-041>051-057-063-072>074-210500-
SOUTHWEST AND SOUTH CENTRAL SOUTH DAKOTA

CITY           SKY/WX    TMP DP  RH WIND       PRES   REMARKS
RAPID CTY ARPT CLOUDY    80  59  48 SE7       29.90R
PIERRE         NOT AVBL
CUSTER         CLOUDY    76  54  46 S7        30.09R
ELLSWORTH AFB  PTCLDY    83  59  43 S8        29.91R
PHILIP         CLOUDY    82  63  52 SE7       29.85R
PINE RIDGE     PTCLDY    80  63  55 SE8       29.92R
SPEARFISH      FAIR      77  59  53 NW10      30.01R
WINNER         FAIR      79  66  64 SE9       29.89F
$$

SDZ004>011-016>023-039-040-210500-
NORTHEAST SOUTH DAKOTA

CITY           SKY/WX    TMP DP  RH WIND       PRES   REMARKS
ABERDEEN       CLOUDY    74  68  81 NE6       29.93R
WATERTOWN      CLOUDY    73  67  81 SE6       29.95S
BROOKINGS      CLEAR     76  67  73 E8        29.97R
SISSETON         N/A     70  68  93 S3        29.93R
$$

SDZ017-020-022-023-036>040-048>070-210500-
SOUTHEAST SOUTH DAKOTA

CITY           SKY/WX    TMP DP  RH WIND       PRES   REMARKS
SIOUX FALLS    CLEAR     76  71  85 E7        29.95R
HURON          CLEAR     77  70  79 SE9       29.89F
CHAMBERLAIN    CLEAR     80  73  81 E7        29.88F
MITCHELL       CLEAR     76  73  91 E6        29.91R
YANKTON        CLEAR     77  72  84 E6        29.91S
$$

ABBREVIATIONS USED IN REMARKS
   TC - TEMPERATURE IN CELSIUS
  WCI - WIND CHILL INDEX
   HX - HEAT INDEX
  VSB - VISIBILITY




USA.gov is the U.S. government's official web portal to all federal, state and local government web resources and services.